EW2804 Weather Reports


time (UTC)temp
F
wind
direction
speed
knots
gust
knots
rain 1hr
in
rain 24hr
in
rain mn
in
humidity
%
barometer
mb
20260502151513 67 232 0.0 0.0 0.00 0.00 0.00 52 1021.4
20260502150534 66 232 0.0 0.0 0.00 0.00 0.00 57 1021.4
20260502130217 50 179 0.0 0.0 0.00 0.00 0.00 88 1020.8
20260502123225 48 179 0.0 0.0 0.00 0.00 0.00 87 1020.3
20260502122158 47 179 0.0 0.0 0.00 0.00 0.00 88 1020.2
20260502121158 47 179 0.0 0.0 0.00 0.00 0.00 87 1019.9
20260502112820 47 179 0.0 0.0 0.00 0.00 0.00 86 1019.2
20260502111813 48 179 0.0 0.0 0.00 0.00 0.00 86 1019.2
20260502110737 48 179 0.0 0.0 0.00 0.00 0.00 86 1018.9
20260502104619 49 179 0.0 0.0 0.00 0.00 0.00 87 1018.8
20260502103552 49 179 0.0 0.0 0.00 0.00 0.00 87 1018.8
20260502102521 48 179 0.0 0.0 0.00 0.00 0.00 86 1018.7
20260502101501 48 179 0.0 0.0 0.00 0.00 0.00 86 1018.4
20260502100454 48 179 0.0 0.0 0.00 0.00 0.00 85 1018.4
20260502091435 50 179 0.0 0.0 0.00 0.00 0.00 85 1018.4
20260502090420 50 179 0.0 0.0 0.00 0.00 0.00 85 1018.3
20260502070717 51 156 0.0 0.0 0.00 0.00 0.00 85 1018.5
20260502065659 51 156 0.0 0.0 0.00 0.00 0.00 85 1018.6
20260502064651 51 156 0.0 0.0 0.00 0.00 0.00 84 1018.5
20260502063703 51 156 0.0 0.0 0.00 0.00 0.00 84 1018.5
20260502062703 52 156 0.0 0.0 0.00 0.00 0.00 84 1018.5
20260502061719 52 156 0.0 0.0 0.00 0.00 0.00 84 1018.5
20260502060657 52 156 0.0 0.0 0.00 0.00 0.00 84 1018.5
20260502055649 53 156 0.0 0.0 0.00 0.00 0.00 83 1018.5
20260502054629 53 156 0.0 0.0 0.00 0.00 0.00 83 1018.4
20260502053645 54 156 0.0 0.0 0.00 0.00 0.00 83 1018.4
20260502052651 54 156 0.0 0.0 0.00 0.00 0.00 84 1018.3
20260502050441 55 156 0.0 0.0 0.00 0.00 0.00 82 1018.2
20260502045445 55 156 0.0 0.0 0.00 0.00 0.00 81 1018.3
20260502044427 56 156 0.0 0.0 0.00 0.00 0.00 81 1018.3
20260502043353 56 156 0.0 0.0 0.00 0.00 0.00 82 1018.3
20260502042415 57 156 0.0 0.0 0.00 0.00 0.00 82 1018.2
20260502041434 57 156 0.0 0.0 0.00 0.00 0.00 82 1018.2
20260502040425 57 156 0.0 0.0 0.00 0.00 0.00 81 1018.0
20260502035349 57 156 0.0 0.0 0.00 0.00 0.00 81 1018.1
20260502034344 57 156 0.0 0.0 0.00 0.00 0.00 80 1018.0
20260502033321 57 156 0.0 0.0 0.00 0.00 0.00 80 1018.0
20260502032324 57 156 0.0 0.0 0.00 0.00 0.00 79 1018.0
20260502031258 58 156 0.0 0.9 0.00 0.00 0.00 79 1017.9
20260502030223 58 156 0.0 0.0 0.00 0.00 0.00 78 1017.7
20260502024055 59 0 0.0 0.0 0.00 0.00 0.00 78 1017.5
20260502023109 60 0 0.0 0.0 0.00 0.00 0.00 76 1017.2
20260502022130 60 0 0.0 0.0 0.00 0.00 0.00 75 1017.1
20260502021145 60 0 0.0 0.0 0.00 0.00 0.00 75 1017.1
20260502020113 60 0 0.0 0.0 0.00 0.00 0.00 74 1016.9
20260502015121 61 0 0.0 0.0 0.00 0.00 0.00 73 1016.7
20260502014130 61 0 0.0 0.0 0.00 0.00 0.00 73 1016.4
20260502013121 61 0 0.0 0.0 0.00 0.00 0.00 71 1016.2
20260502012132 62 0 0.0 0.0 0.00 0.00 0.00 70 1015.9
20260502011152 62 0 0.0 0.0 0.00 0.00 0.00 71 1015.8
20260502010201 62 0 0.0 0.0 0.00 0.00 0.00 70 1015.6
20260502004031 63 0 0.0 0.0 0.00 0.00 0.00 67 1015.5
20260502003022 64 0 0.0 0.0 0.00 0.00 0.00 68 1015.3
20260502002038 64 0 0.0 0.0 0.00 0.00 0.00 68 1015.2
20260502001046 64 0 0.0 0.0 0.00 0.00 0.00 66 1015.1
20260502000107 65 0 0.0 0.0 0.00 0.00 0.00 65 1014.8
20260501235056 65 39 0.0 0.0 0.00 0.00 0.00 64 1014.7
20260501234100 65 39 0.0 0.0 0.00 0.00 0.00 61 1014.6
20260501233110 65 39 0.0 0.0 0.00 0.00 0.00 58 1014.6
20260501232036 66 39 0.0 0.0 0.00 0.00 0.00 56 1014.5
20260501231051 66 40 0.0 0.0 0.00 0.00 0.00 56 1014.4
20260501230056 66 40 0.0 0.9 0.00 0.00 0.00 54 1014.4
20260501225101 66 25 0.0 1.7 0.00 0.00 0.00 54 1014.4
20260501224121 66 25 0.0 1.7 0.00 0.00 0.00 57 1014.5
20260501223107 65 0 0.0 6.1 0.00 0.00 0.00 54 1014.4
20260501222053 65 355 0.9 6.1 0.00 0.00 0.00 54 1014.3
20260501221031 66 80 0.0 2.6 0.00 0.00 0.00 56 1014.2
20260501220038 66 91 0.0 4.3 0.00 0.00 0.00 55 1014.2
20260501215055 66 40 0.9 4.3 0.00 0.00 0.00 53 1014.3
20260501214046 66 47 0.9 3.5 0.00 0.00 0.00 56 1014.5
20260501213040 66 36 0.9 3.5 0.00 0.00 0.00 54 1014.5
20260501212019 66 69 0.0 2.6 0.00 0.00 0.00 55 1014.7
20260501211025 65 178 0.0 3.5 0.00 0.00 0.00 55 1014.9
20260501204825 65 132 0.9 7.0 0.00 0.00 0.00 56 1015.3
20260501203757 65 42 0.9 7.0 0.00 0.00 0.00 55 1015.2
20260501202811 65 101 0.9 7.8 0.00 0.00 0.00 56 1015.4
20260501201832 65 109 0.9 7.8 0.00 0.00 0.00 55 1015.5
20260501200850 65 72 0.9 7.8 0.00 0.00 0.00 54 1015.5
20260501194743 65 39 0.9 9.6 0.00 0.00 0.00 55 1015.3
20260501193721 65 90 1.7 9.6 0.00 0.00 0.00 54 1015.2
20260501192728 64 125 2.6 10.4 0.00 0.00 0.00 53 1015.0
20260501191710 64 51 3.5 10.4 0.00 0.00 0.00 54 1014.9
20260501190634 64 26 0.9 7.8 0.00 0.00 0.00 53 1015.2
20260501185630 64 124 1.7 7.8 0.00 0.00 0.00 50 1015.2
20260501184613 64 81 1.7 8.7 0.00 0.00 0.00 52 1015.1
20260501183545 65 331 2.6 8.7 0.00 0.00 0.00 52 1015.3
20260501182546 65 31 2.6 8.7 0.00 0.00 0.00 55 1015.3
20260501181541 65 43 2.6 7.0 0.00 0.00 0.00 55 1015.3
20260501180549 65 17 1.7 7.0 0.00 0.00 0.00 54 1015.6
20260501175552 65 0 1.7 7.8 0.00 0.00 0.00 57 1015.9
20260501174518 65 0 1.7 7.8 0.00 0.00 0.00 61 1016.0
20260501172403 64 36 2.6 8.7 0.00 0.00 0.00 60 1016.1
20260501171337 64 30 0.9 8.7 0.00 0.00 0.00 64 1016.4
20260501170333 64 95 1.7 8.7 0.00 0.00 0.00 62 1016.7
20260501165338 64 40 1.7 7.8 0.00 0.00 0.00 64 1016.3
20260501164320 63 30 1.7 7.8 0.00 0.00 0.00 64 1016.5
20260501163341 63 32 1.7 6.1 0.00 0.00 0.00 66 1016.8
20260501162305 63 46 0.9 7.0 0.00 0.00 0.00 70 1016.8
20260501160133 61 0 0.9 6.1 0.00 0.00 0.00 75 1016.8